Location: Chevoux
(46.3801°N, 4.9476°E)
Time: 08:46:43
(UTC+00:00)

IRS-1C Rocket - Visible Passes

Search period start: 09 May 2021 00:00
Search period end: 19 May 2021 00:00
Orbit: 800 x 806 km, 99.0° (Epoch: 08 May)

Date Brightness Start Highest point End Pass type
(mag) Time Alt. Az. Time Alt. Az. Time Alt. Az.
11 May 7.3 20:12:38 10° W 20:12:53 10° W 20:13:07 10° W visible
12 May 6.7 19:43:17 10° SW 19:46:47 18° W 19:50:17 10° NW visible
15 May 7.1 20:08:13 10° WSW 20:09:39 11° W 20:11:04 10° WNW visible
16 May 6.7 19:39:52 10° SW 19:43:33 19° W 19:47:17 10° NW visible
